Regional Weather Roundup
Issued by NWS

Home | Current Version | Previous Version | Text Only | Print | Product List | Glossary Off
Versions: 1 2 3 4 5 6 7 8 9 10 11 12 13 14 15 16 17 18 19 20 21 22 23 24 25 26 27 28 29 30 31 32 33 34 35 36 37 38 39 40 41 42 43 44 45 46 47 48 49 50

000
ASUS44 KOUN 280810
RWROK

WEATHER ROUNDUP FOR OKLAHOMA
NATIONAL WEATHER SERVICE NORMAN OK
200 AM CST FRI NOV 28 2014

NOTE: "FAIR" INDICATES FEW OR NO CLOUDS BELOW 12,000 FEET WITH NO
      SIGNIFICANT WEATHER AND/OR OBSTRUCTIONS TO VISIBILITY.

OKZ001>007-009>012-014-015-017-280900-
NORTHWEST OKLAHOMA AND THE PANHANDLE

CITY           SKY/WX    TMP DP  RH WIND       PRES   REMARKS
GAGE           MOCLDY    44  29  55 S15       30.09F
ENID/WOODRING  CLEAR     39  28  65 S13       30.14F WCI  32
$$

OKZ016-021>023-033>039-044-045-280900-
SOUTHWEST OKLAHOMA

CITY           SKY/WX    TMP DP  RH WIND       PRES   REMARKS
LAWTON/REGL    PTCLDY    38  29  70 S10       30.23F WCI  31
LAWTON/FT SILL PTCLDY    37  29  71 S7        30.22F WCI  32
FREDERICK      CLEAR     36  30  79 SE7       30.20F WCI  30
CLINTON        PTCLDY    44  30  57 S22       30.17F
HOBART         MOCLDY    40  31  70 S16       30.20F WCI  31
ALTUS AFB      PTCLDY    34  32  92 E3        30.22F
$$

OKZ018>020-024>031-280900-
CENTRAL OKLAHOMA

CITY           SKY/WX    TMP DP  RH WIND       PRES   REMARKS
OKLAHOMA CITY  MOCLDY    46  24  42 S17       30.20F
OKC/WILEY POST PTCLDY    47  24  40 S20       30.20S
OKC/TINKER AFB PTCLDY    44  24  46 S14       30.21S
STILLWATER     CLEAR     39  24  55 S10       30.19F WCI  32
GUTHRIE        CLEAR     46  24  42 S14       30.19S
$$

OKZ008-013-054>072-280900-
NORTHEAST OKLAHOMA

CITY           SKY/WX    TMP DP  RH WIND       PRES   REMARKS
TULSA          CLEAR     41  25  53 S13       30.22F
TULSA/JONES    CLEAR     33  26  75 S5        30.25F WCI  29
PONCA CITY     CLEAR     42  23  46 S7        30.15F
BARTLESVILLE   CLEAR     31  25  78 S5        30.22F WCI  26
MUSKOGEE       CLEAR     33  27  78 S8        30.30F WCI  26
$$

OKZ032-040>043-046>053-073>077-280900-
SOUTH CENTRAL/SOUTHEAST OKLAHOMA

CITY           SKY/WX    TMP DP  RH WIND       PRES   REMARKS
ARDMORE/DWNTWN CLEAR     37  28  70 CALM      30.28F
MCALESTER      PTCLDY    44  27  51 S9G21     30.28F
$$




USA.gov is the U.S. government's official web portal to all federal, state and local government web resources and services.